Sheridan, NY

8:34 AM EDT on August 27, 2016 (GMT -0400)
Chautauqua County-Dunkirk

Weather History for KDKK - March, 2013

Change the Weather History Date:

Friday, March 15, 2013

  Actual Average Record
Temperature  
Mean Temperature 30 °F -  
Max Temperature 33 °F 44 °F 80 °F (1990)
Min Temperature 26 °F 27 °F 0 °F (1960)
Degree Days  
Heating Degree Days 36    
Moisture  
Dew Point 27 °F    
Average Humidity 82    
Maximum Humidity 96    
Minimum Humidity 64    
Precipitation  
Precipitation 0.01 in - - ()
Sea Level Pressure  
Sea Level Pressure 29.88 in    
Wind  
Wind Speed 13 mph (WSW)    
Max Wind Speed 22 mph    
Max Gust Speed 34 mph    
Visibility 5 miles    
Events Snow    
Averages and records for this station are not official NWS values.
T = Trace of Precipitation, MM = Missing Value Source: NWS Daily Summary

Daily Weather History Graph

Daily Weather History Graph

Search for Another Location

Airport or City:

Trip Planner

Search our weather history database for the weather conditions in past years. The results will help you decide how hot, cold, wet, or windy it might be!

Date:

Astronomy

Mar. 15, 2013 Rise Set
Actual Time 7:28 AM EDT 7:23 PM EDT
Civil Twilight 7:00 AM EDT 7:51 PM EDT
Nautical Twilight 6:27 AM EDT 8:24 PM EDT
Astronomical Twilight 5:54 AM EDT 8:57 PM EDT
Moon 9:12 AM EDT (3/15) 11:42 PM EDT (3/15)
Length of Visible Light 12h 51m
Length of Day
11h 55m
Waxing Crescent, 15% of the Moon is Illuminated
Mar 15
Waxing Crescent
Mar 19
First Quarter
Mar 27
Full
Apr 3
Last Quarter
Apr 10
New

Hourly Weather History & Observations

Time (EDT) Temp. Windchill Dew Point Humidity Pressure Visibility Wind Dir Wind Speed Gust Speed Precip Events Conditions
12:53 AM 26.1 °F 17.6 °F 21.0 °F 81% 30.09 in 10.0 mi SSW 8.1 mph - N/A   Scattered Clouds
1:53 AM 27.0 °F 18.7 °F 19.0 °F 72% 30.06 in 10.0 mi South 8.1 mph - N/A   Mostly Cloudy
2:53 AM 27.0 °F 18.7 °F 18.0 °F 69% 30.04 in 10.0 mi SSW 8.1 mph - N/A   Mostly Cloudy
3:53 AM 28.0 °F 18.6 °F 18.0 °F 66% 30.00 in 10.0 mi SSW 10.4 mph - N/A   Mostly Cloudy
4:53 AM 28.0 °F 20.8 °F 19.0 °F 69% 29.97 in 10.0 mi SSW 6.9 mph - N/A   Overcast
5:53 AM 32.0 °F 21.2 °F 23.0 °F 69% 29.93 in 10.0 mi SW 16.1 mph - N/A   Overcast
6:53 AM 33.1 °F 22.6 °F 21.9 °F 64% 29.91 in 10.0 mi WSW 16.1 mph 25.3 mph N/A   Overcast
7:40 AM 32.0 °F 21.2 °F 24.8 °F 75% 29.88 in 1.8 mi WSW 16.1 mph 31.1 mph 0.00 in Snow Light Snow
7:51 AM 32.0 °F 21.6 °F 24.8 °F 75% 29.88 in 1.5 mi WSW 15.0 mph 23.0 mph 0.00 in Snow Light Snow
7:53 AM 32.0 °F 22.5 °F 25.0 °F 75% 29.90 in 1.2 mi SW 12.7 mph 21.9 mph 0.00 in Snow Light Snow
8:09 AM 32.0 °F 20.8 °F 24.8 °F 75% 29.87 in 3.0 mi WSW 17.3 mph 25.3 mph 0.00 in Snow Light Snow
8:53 AM 32.0 °F 20.8 °F 27.0 °F 82% 29.89 in 4.0 mi WSW 17.3 mph 28.8 mph 0.00 in Snow Light Snow
9:26 AM 32.0 °F 20.5 °F 26.6 °F 80% 29.86 in 8.0 mi WSW 18.4 mph 27.6 mph 0.00 in   Overcast
9:44 AM 32.0 °F 22.1 °F 26.6 °F 80% 29.85 in 8.0 mi SW 13.8 mph 27.6 mph 0.00 in   Overcast
9:53 AM 32.0 °F 21.6 °F 27.0 °F 82% 29.88 in 9.0 mi WSW 15.0 mph 25.3 mph 0.00 in   Overcast
10:32 AM 33.8 °F 22.8 °F 26.6 °F 75% 29.85 in 6.0 mi SW 18.4 mph 25.3 mph 0.00 in Snow Light Snow
10:51 AM 33.8 °F 23.2 °F 26.6 °F 75% 29.85 in 2.0 mi WSW 17.3 mph 28.8 mph 0.00 in Snow Light Snow
10:53 AM 33.1 °F 22.2 °F 27.0 °F 78% 29.87 in 1.8 mi WSW 17.3 mph 28.8 mph 0.00 in Snow Light Snow
11:08 AM 33.8 °F 23.9 °F 28.4 °F 81% 29.85 in 1.5 mi WSW 15.0 mph 24.2 mph 0.00 in Snow Light Snow
11:33 AM 32.0 °F 20.5 °F 28.4 °F 87% 29.85 in 1.8 mi WSW 18.4 mph 31.1 mph 0.01 in Snow Light Snow
11:49 AM 32.0 °F 20.5 °F 30.2 °F 93% 29.85 in 2.0 mi WSW 18.4 mph 31.1 mph 0.01 in Snow Light Snow
11:53 AM 32.0 °F 20.5 °F 30.0 °F 92% 29.87 in 1.8 mi WSW 18.4 mph 29.9 mph 0.01 in Snow Light Snow
12:26 PM 32.0 °F 20.1 °F 28.4 °F 87% 29.84 in 2.5 mi WSW 19.6 mph 34.5 mph 0.00 in Snow Light Snow
12:43 PM 32.0 °F 20.1 °F 28.4 °F 87% 29.83 in 3.0 mi WSW 19.6 mph 31.1 mph 0.00 in Snow Light Snow
12:53 PM 32.0 °F 20.5 °F 28.9 °F 88% 29.86 in 2.5 mi WSW 18.4 mph 33.4 mph 0.00 in Snow Light Snow
1:00 PM 32.0 °F 19.5 °F 28.4 °F 87% 29.83 in 3.0 mi WSW 21.9 mph 27.6 mph 0.00 in Snow Light Snow
1:09 PM 32.0 °F 20.5 °F 28.4 °F 87% 29.83 in 2.5 mi WSW 18.4 mph 31.1 mph 0.00 in Snow Light Snow
1:18 PM 32.0 °F 21.2 °F 28.4 °F 87% 29.83 in 4.0 mi WSW 16.1 mph 25.3 mph 0.00 in Snow Light Snow
1:53 PM 32.0 °F 20.1 °F 30.0 °F 92% 29.85 in 5.0 mi WSW 19.6 mph 26.5 mph 0.00 in   Overcast
2:53 PM 33.1 °F 23.0 °F 30.0 °F 89% 29.85 in 4.0 mi WSW 15.0 mph 27.6 mph 0.00 in   Overcast
3:53 PM 33.1 °F 22.6 °F 30.0 °F 89% 29.84 in 4.0 mi WSW 16.1 mph 23.0 mph N/A   Overcast
4:53 PM 33.1 °F 23.0 °F 30.0 °F 89% 29.85 in 3.0 mi WSW 15.0 mph 20.7 mph N/A   Overcast
5:05 PM 33.8 °F 24.8 °F 30.2 °F 87% 29.83 in 2.5 mi WSW 12.7 mph 23.0 mph N/A   Overcast
5:44 PM 33.8 °F 23.9 °F 30.2 °F 87% 29.83 in 3.0 mi WSW 15.0 mph 26.5 mph N/A   Overcast
5:53 PM 33.1 °F 23.9 °F 30.9 °F 92% 29.86 in 3.0 mi WSW 12.7 mph 23.0 mph N/A   Overcast
6:53 PM 33.1 °F 24.4 °F 30.9 °F 92% 29.86 in 4.0 mi WSW 11.5 mph - N/A   Mostly Cloudy
7:53 PM 33.1 °F 25.5 °F 30.9 °F 92% 29.88 in 5.0 mi WSW 9.2 mph - N/A   Overcast
8:53 PM 33.1 °F 24.9 °F 30.9 °F 92% 29.90 in 4.0 mi West 10.4 mph - N/A   Mostly Cloudy
9:49 PM 32.0 °F 26.4 °F 30.2 °F 93% 29.88 in 5.0 mi West 5.8 mph - N/A   Mostly Cloudy
9:53 PM 32.0 °F 27.5 °F 30.9 °F 96% 29.90 in 5.0 mi West 4.6 mph - N/A   Scattered Clouds
10:53 PM 32.0 °F 26.4 °F 26.1 °F 79% 29.91 in 10.0 mi NW 5.8 mph - N/A   Clear
11:53 PM 30.9 °F 26.2 °F 19.9 °F 64% 29.91 in 10.0 mi WNW 4.6 mph - N/A   Partly Cloudy